Satellite: CO-55
Catalog number: 27844
Epoch time:      12298.61644158
Element set:     491
Inclination:      098.7038 deg
RA of node:       305.1253 deg
Eccentricity:    0.0009116
Arg of perigee:   205.9820 deg
Mean anomaly:     154.0902 deg
Mean motion:   14.21097344 rev/day
Decay rate:       3.69e-06 rev/day^2
Epoch rev:           48327
Checksum:              311

Satellite: CO-57
Catalog number: 27848
Epoch time:      12299.55855925
Element set:     441
Inclination:      098.7130 deg
RA of node:       305.4493 deg
Eccentricity:    0.0009078
Arg of perigee:   207.5437 deg
Mean anomaly:     152.5255 deg
Mean motion:   14.20840011 rev/day
Decay rate:       3.11e-06 rev/day^2
Epoch rev:           48334
Checksum:              308

Satellite: AO-51
Catalog number: 28375
Epoch time:      12298.58173835
Element set:     396
Inclination:      098.1645 deg
RA of node:       257.9575 deg
Eccentricity:    0.0084485
Arg of perigee:   009.6017 deg
Mean anomaly:     350.6768 deg
Mean motion:   14.41010063 rev/day
Decay rate:       2.96e-06 rev/day^2
Epoch rev:           43740
Checksum:              336

Satellite: CP3
Catalog number: 31129
Epoch time:      12298.73850900
Element set:    0298
Inclination:      097.8886 deg
RA of node:       298.9250 deg
Eccentricity:    0.0101911
Arg of perigee:   080.3146 deg
Mean anomaly:     280.9520 deg
Mean motion:   14.53274004 rev/day
Decay rate:      1.353e-05 rev/day^2
Epoch rev:           29279
Checksum:              313

Satellite: CO-65
Catalog number: 32785
Epoch time:      12298.77956295
Element set:    0452
Inclination:      097.7829 deg
RA of node:       356.6772 deg
Eccentricity:    0.0014462
Arg of perigee:   004.4936 deg
Mean anomaly:     355.6373 deg
Mean motion:   14.83309434 rev/day
Decay rate:      1.901e-05 rev/day^2
Epoch rev:           24297
Checksum:              355

Satellite: PRISM
Catalog number: 33493
Epoch time:      12299.71272059
Element set:     195
Inclination:      098.1883 deg
RA of node:       083.5903 deg
Eccentricity:    0.0017808
Arg of perigee:   232.3454 deg
Mean anomaly:     127.6148 deg
Mean motion:   14.84626146 rev/day
Decay rate:      5.636e-05 rev/day^2
Epoch rev:           20311
Checksum:              311

Satellite: SOHLA-1
Catalog number: 33496
Epoch time:      12298.90828242
Element set:     868
Inclination:      098.1160 deg
RA of node:       049.8750 deg
Eccentricity:    0.0006751
Arg of perigee:   358.5238 deg
Mean anomaly:     001.5946 deg
Mean motion:   14.70089467 rev/day
Decay rate:       8.71e-06 rev/day^2
Epoch rev:           20130
Checksum:              319

Satellite: SO-67
Catalog number: 35870
Epoch time:      12299.74884382
Element set:     451
Inclination:      097.2206 deg
RA of node:       330.8950 deg
Eccentricity:    0.0003880
Arg of perigee:   077.3323 deg
Mean anomaly:     014.3133 deg
Mean motion:   15.24953726 rev/day
Decay rate:      7.421e-05 rev/day^2
Epoch rev:           17250
Checksum:              308

Satellite: TISAT-1
Catalog number: 36799
Epoch time:      12299.76982952
Element set:     469
Inclination:      098.0537 deg
RA of node:       017.0248 deg
Eccentricity:    0.0015932
Arg of perigee:   107.4610 deg
Mean anomaly:     252.8341 deg
Mean motion:   14.82443120 rev/day
Decay rate:      3.468e-05 rev/day^2
Epoch rev:           12383
Checksum:              319

Satellite: STUDSAT
Catalog number: 36801
Epoch time:      12298.85711081
Element set:    0525
Inclination:      098.0599 deg
RA of node:       017.4748 deg
Eccentricity:    0.0013269
Arg of perigee:   096.0815 deg
Mean anomaly:     264.1914 deg
Mean motion:   14.85669715 rev/day
Decay rate:      9.350e-05 rev/day^2
Epoch rev:           12376
Checksum:              327

Satellite: FO-69
Catalog number: 37227
Epoch time:      12299.47103552
Element set:    0321
Inclination:      071.9717 deg
RA of node:       024.4362 deg
Eccentricity:    0.0015204
Arg of perigee:   076.9960 deg
Mean anomaly:     283.2898 deg
Mean motion:   14.77238056 rev/day
Decay rate:      1.135e-05 rev/day^2
Epoch rev:           05533
Checksum:              312

Satellite: FO-70
Catalog number: 37380
Epoch time:      12299.36318212
Element set:    0321
Inclination:      071.9740 deg
RA of node:       025.3984 deg
Eccentricity:    0.0015723
Arg of perigee:   073.8645 deg
Mean anomaly:     286.4236 deg
Mean motion:   14.76985071 rev/day
Decay rate:      1.115e-05 rev/day^2
Epoch rev:           05520
Checksum:              301

Satellite: ALMASAT-1
Catalog number: 38078
Epoch time:      12299.72991927
Element set:     679
Inclination:      069.4755 deg
RA of node:       020.5788 deg
Eccentricity:    0.0734754
Arg of perigee:   084.6814 deg
Mean anomaly:     283.7609 deg
Mean motion:   14.14353527 rev/day
Decay rate:     2.2506e-04 rev/day^2
Epoch rev:            3597
Checksum:              362

Satellite: XATCOBEO
Catalog number: 38082
Epoch time:      12299.65387383
Element set:     644
Inclination:      069.4819 deg
RA of node:       014.2731 deg
Eccentricity:    0.0682472
Arg of perigee:   081.1908 deg
Mean anomaly:     286.5801 deg
Mean motion:   14.28494160 rev/day
Decay rate:     5.6025e-04 rev/day^2
Epoch rev:            3613
Checksum:              319

/EX
SB KEPS @ AMSAT  $ORB12299.W
Orbital Elements  12299.WEATHER

HR AMSAT ORBITAL ELEMENTS FOR WEATHER SATELLITES
FROM WA5QGD FORT WORTH,TX October 25, 2012
BID: ORB12299.W
TO ALL RADIO AMATEURS BT

